Flag Weather past 2 weeks in Lilienfeld, Lower Austria, Austria

Now
39 °F

Fog.


Feels Like: 35 °F
Forecast: 31 / 39 °F
Wind: 6 mph from Southeast

Location: Tulln Airport

Current Time: Nov 24, 2014 at 8:14:09 AM

Latest Report: Nov 24, 2014 at 7:50 AM


Visibility: 3 mi

Pressure: 30.27 "Hg

Humidity: 87%

Dew point: 36 °F

Location of LilienfeldLocation

Historic Weather in Lilienfeld — Graph

°F

Lilienfeld temperature yesterday

Maximum temperature yesterday: 48 °F (at 12:50 PM)
Minimum temperature yesterday: 39 °F (at 5:50 AM)
Average temperature yesterday: 44 °F

Past Weeks' High & Low Weather Summary

 TemperatureHumidityPressure
High64 °F (Nov 13, 2:50 PM)100% (Nov 10, 7:50 AM)30.36 "Hg (Nov 10, 7:50 AM)
Low39 °F (Nov 21, 6:50 AM)50% (Nov 15, 6:50 PM)29.59 "Hg (Nov 16, 6:50 AM)
Average49 °F86%29.96 "Hg
* Reported Nov 9 6:50 AM — Nov 24 6:50 AM, Lilienfeld, Weather by CustomWeather, © 2014

Note: Actual official high and low records may vary slightly from our data, if they occured in-between our weather recording intervals... More about our weather records

Advertising

Lilienfeld weather history for previous 24 hours

 ConditionsComfort  
Time TempWeatherWind HumidityBarometerVisibility
6:50 AM
Nov 24
39 °FPassing clouds.6 mph87%30.27 "Hg4 mi
5:50 AM39 °FPassing clouds.6 mph87%30.27 "Hg4 mi
4:50 AM39 °FPassing clouds.7 mph87%30.27 "Hg4 mi
9:50 PM
Nov 23
45 °FOvercast.10 mph76%30.33 "Hg6 mi
8:50 PM45 °FOvercast.13 mph76%30.33 "Hg6 mi
7:50 PM45 °FOvercast.12 mph76%30.33 "Hg6 mi
6:50 PM45 °FOvercast.10 mph76%30.33 "Hg6 mi
5:50 PM45 °FPassing clouds.7 mph81%30.33 "Hg6 mi
4:50 PM45 °FPassing clouds.8 mph76%30.33 "Hg6 mi
3:50 PM45 °FPartly sunny.9 mph81%30.33 "Hg6 mi
2:50 PM46 °FPartly sunny.10 mph71%30.33 "Hg6 mi
1:50 PM46 °FPartly sunny.10 mph76%30.33 "Hg5 mi
12:50 PM48 °FScattered clouds.10 mph66%30.36 "Hg5 mi
11:50 AM46 °FPassing clouds.10 mph71%30.36 "Hg6 mi
10:50 AM46 °FPassing clouds.14 mph71%30.36 "Hg6 mi
9:50 AM45 °FPassing clouds.6 mph76%30.36 "Hg6 mi
8:50 AM41 °FPassing clouds.6 mph81%30.36 "Hg5 mi
Weather by CustomWeather, © 2014

See weather overviewHow to use our weather pages